Year,Month,Day,Hour,Minute,Value (Times are PST for temperature in C)
2021,08,25,00,00,13.30
2021,08,25,00,01,13.20
2021,08,25,00,02,13.20
2021,08,25,00,03,13.20
2021,08,25,00,04,13.20
2021,08,25,00,05,13.20
2021,08,25,00,06,13.20
2021,08,25,00,07,13.20
2021,08,25,00,08,13.20
2021,08,25,00,09,13.20
2021,08,25,00,10,13.20
2021,08,25,00,11,13.20
2021,08,25,00,12,13.20
2021,08,25,00,13,13.10
2021,08,25,00,14,13.10
2021,08,25,00,15,13.10
2021,08,25,00,16,13.10
2021,08,25,00,17,13.10
2021,08,25,00,18,13.10
2021,08,25,00,19,13.10
2021,08,25,00,20,13.10
2021,08,25,00,21,13.10
2021,08,25,00,22,13.00
2021,08,25,00,23,13.00
2021,08,25,00,24,13.00
2021,08,25,00,25,13.00
2021,08,25,00,26,13.00
2021,08,25,00,27,12.90
2021,08,25,00,28,12.90
2021,08,25,00,29,12.90
2021,08,25,00,30,12.90
2021,08,25,00,31,12.90
2021,08,25,00,32,12.90
2021,08,25,00,33,12.90
2021,08,25,00,34,12.90
2021,08,25,00,35,12.90
2021,08,25,00,36,12.90
2021,08,25,00,37,12.90
2021,08,25,00,38,12.90
2021,08,25,00,39,12.80
2021,08,25,00,40,12.80
2021,08,25,00,41,12.80
2021,08,25,00,42,12.80
2021,08,25,00,43,12.80
2021,08,25,00,44,12.80
2021,08,25,00,45,12.80
2021,08,25,00,46,12.80
2021,08,25,00,47,12.80
2021,08,25,00,48,12.80
2021,08,25,00,49,12.80
2021,08,25,00,50,12.80
2021,08,25,00,51,12.80
2021,08,25,00,52,12.80
2021,08,25,00,53,12.80
2021,08,25,00,54,12.80
2021,08,25,00,55,12.80
2021,08,25,00,56,12.80
2021,08,25,00,57,12.80
2021,08,25,00,58,12.80
2021,08,25,00,59,12.80
2021,08,25,01,00,12.80
2021,08,25,01,01,12.80
2021,08,25,01,02,12.80
2021,08,25,01,03,12.80
2021,08,25,01,04,12.80
2021,08,25,01,05,12.80
2021,08,25,01,06,12.70
2021,08,25,01,07,12.70
2021,08,25,01,08,12.70
2021,08,25,01,09,12.70
2021,08,25,01,10,12.70
2021,08,25,01,11,12.70
2021,08,25,01,12,12.70
2021,08,25,01,13,12.70
2021,08,25,01,14,12.70
2021,08,25,01,15,12.60
2021,08,25,01,16,12.60
2021,08,25,01,17,12.60
2021,08,25,01,18,12.60
2021,08,25,01,19,12.60
2021,08,25,01,20,12.60
2021,08,25,01,21,12.60
2021,08,25,01,22,12.60
2021,08,25,01,23,12.60
2021,08,25,01,24,12.60
2021,08,25,01,25,12.50
2021,08,25,01,26,12.50
2021,08,25,01,27,12.40
2021,08,25,01,28,12.40
2021,08,25,01,29,12.40
2021,08,25,01,30,12.40
2021,08,25,01,31,12.40
2021,08,25,01,32,12.40
2021,08,25,01,33,12.40
2021,08,25,01,34,12.40
2021,08,25,01,35,12.40
2021,08,25,01,36,12.40
2021,08,25,01,37,12.40
2021,08,25,01,38,12.40
2021,08,25,01,39,12.40
2021,08,25,01,40,12.40
2021,08,25,01,41,12.40
2021,08,25,01,42,12.40
2021,08,25,01,43,12.40
2021,08,25,01,44,12.40
2021,08,25,01,45,12.40
2021,08,25,01,46,12.30
2021,08,25,01,47,12.30
2021,08,25,01,48,12.30
2021,08,25,01,49,12.30
2021,08,25,01,50,12.30
2021,08,25,01,51,12.30
2021,08,25,01,52,12.30
2021,08,25,01,53,12.30
2021,08,25,01,54,12.30
2021,08,25,01,55,12.30
2021,08,25,01,56,12.30
2021,08,25,01,57,12.30
2021,08,25,01,58,12.30
2021,08,25,01,59,12.30
2021,08,25,02,00,12.30
2021,08,25,02,01,12.20
2021,08,25,02,02,12.20
2021,08,25,02,03,12.20
2021,08,25,02,04,12.20
2021,08,25,02,05,12.20
2021,08,25,02,06,12.20
2021,08,25,02,07,12.20
2021,08,25,02,08,12.20
2021,08,25,02,09,12.20
2021,08,25,02,10,12.20
2021,08,25,02,11,12.20
2021,08,25,02,12,12.20
2021,08,25,02,13,12.20
2021,08,25,02,14,12.20
2021,08,25,02,15,12.20
2021,08,25,02,16,12.20
2021,08,25,02,17,12.20
2021,08,25,02,18,12.20
2021,08,25,02,19,12.20
2021,08,25,02,20,12.10
2021,08,25,02,21,12.10
2021,08,25,02,22,12.10
2021,08,25,02,23,12.00
2021,08,25,02,24,12.00
2021,08,25,02,25,11.90
2021,08,25,02,26,11.90
2021,08,25,02,27,11.90
2021,08,25,02,28,11.90
2021,08,25,02,29,11.90
2021,08,25,02,30,11.80
2021,08,25,02,31,11.80
2021,08,25,02,32,11.80
2021,08,25,02,33,11.80
2021,08,25,02,34,11.80
2021,08,25,02,35,11.80
2021,08,25,02,36,11.80
2021,08,25,02,37,11.80
2021,08,25,02,38,11.80
2021,08,25,02,39,11.70
2021,08,25,02,40,11.80
2021,08,25,02,41,11.80
2021,08,25,02,42,11.80
2021,08,25,02,43,11.80
2021,08,25,02,44,11.80
2021,08,25,02,45,11.80
2021,08,25,02,46,11.80
2021,08,25,02,47,11.80
2021,08,25,02,48,11.80
2021,08,25,02,49,11.80
2021,08,25,02,50,11.80
2021,08,25,02,51,11.80
2021,08,25,02,52,11.80
2021,08,25,02,53,11.80
2021,08,25,02,54,11.80
2021,08,25,02,55,11.80
2021,08,25,02,56,11.80
2021,08,25,02,57,11.80
2021,08,25,02,58,11.80
2021,08,25,02,59,11.80
2021,08,25,03,00,11.80
2021,08,25,03,01,11.80
2021,08,25,03,02,11.90
2021,08,25,03,03,11.80
2021,08,25,03,04,11.80
2021,08,25,03,05,11.80
2021,08,25,03,06,11.80
2021,08,25,03,07,11.80
2021,08,25,03,08,11.80
2021,08,25,03,09,11.80
2021,08,25,03,10,11.80
2021,08,25,03,11,11.80
2021,08,25,03,12,11.80
2021,08,25,03,13,11.80
2021,08,25,03,14,11.80
2021,08,25,03,15,11.80
2021,08,25,03,16,11.80
2021,08,25,03,17,11.80
2021,08,25,03,18,11.80
2021,08,25,03,19,11.80
2021,08,25,03,20,11.80
2021,08,25,03,21,11.80
2021,08,25,03,22,11.80
2021,08,25,03,23,11.70
2021,08,25,03,24,11.70
2021,08,25,03,25,11.70
2021,08,25,03,26,11.60
2021,08,25,03,27,11.60
2021,08,25,03,28,11.60
2021,08,25,03,29,11.50
2021,08,25,03,30,11.50
2021,08,25,03,31,11.40
2021,08,25,03,32,11.40
2021,08,25,03,33,11.40
2021,08,25,03,34,11.40
2021,08,25,03,35,11.40
2021,08,25,03,36,11.40
2021,08,25,03,37,11.40
2021,08,25,03,38,11.40
2021,08,25,03,39,11.40
2021,08,25,03,40,11.40
2021,08,25,03,41,11.40
2021,08,25,03,42,11.40
2021,08,25,03,43,11.40
2021,08,25,03,44,11.40
2021,08,25,03,45,11.40
2021,08,25,03,46,11.40
2021,08,25,03,47,11.40
2021,08,25,03,48,11.40
2021,08,25,03,49,11.40
2021,08,25,03,50,11.40
2021,08,25,03,51,11.40
2021,08,25,03,52,11.40
2021,08,25,03,53,11.40
2021,08,25,03,54,11.40
2021,08,25,03,55,11.40
2021,08,25,03,56,11.40
2021,08,25,03,57,11.30
2021,08,25,03,58,11.30
2021,08,25,03,59,11.30
2021,08,25,04,00,11.30
2021,08,25,04,01,11.30
2021,08,25,04,02,11.20
2021,08,25,04,03,11.20
2021,08,25,04,04,11.20
2021,08,25,04,05,11.20
2021,08,25,04,06,11.10
2021,08,25,04,07,11.10
2021,08,25,04,08,11.10
2021,08,25,04,09,11.10
2021,08,25,04,10,11.10
2021,08,25,04,11,11.10
2021,08,25,04,12,11.10
2021,08,25,04,13,11.10
2021,08,25,04,14,11.10
2021,08,25,04,15,11.10
2021,08,25,04,16,11.10
2021,08,25,04,17,11.10
2021,08,25,04,18,11.10
2021,08,25,04,19,11.10
2021,08,25,04,20,11.10
2021,08,25,04,21,11.10
2021,08,25,04,22,11.10
2021,08,25,04,23,11.10
2021,08,25,04,24,11.10
2021,08,25,04,25,11.10
2021,08,25,04,26,11.10
2021,08,25,04,27,11.10
2021,08,25,04,28,11.10
2021,08,25,04,29,11.10
2021,08,25,04,30,11.10
2021,08,25,04,31,11.10
2021,08,25,04,32,11.10
2021,08,25,04,33,11.10
2021,08,25,04,34,11.10
2021,08,25,04,35,11.00
2021,08,25,04,36,11.00
2021,08,25,04,37,11.00
2021,08,25,04,38,10.90
2021,08,25,04,39,10.90
2021,08,25,04,40,10.90
2021,08,25,04,41,10.90
2021,08,25,04,42,10.90
2021,08,25,04,43,10.90
2021,08,25,04,44,10.90
2021,08,25,04,45,10.90
2021,08,25,04,46,10.90
2021,08,25,04,47,10.90
2021,08,25,04,48,10.90
2021,08,25,04,49,10.90
2021,08,25,04,50,11.00
2021,08,25,04,51,11.00
2021,08,25,04,52,10.90
2021,08,25,04,53,10.90
2021,08,25,04,54,10.90
2021,08,25,04,55,10.90
2021,08,25,04,56,10.90
2021,08,25,04,57,10.90
2021,08,25,04,58,10.90
2021,08,25,04,59,10.90
2021,08,25,05,00,10.90
2021,08,25,05,01,10.90
2021,08,25,05,02,10.90
2021,08,25,05,03,10.90
2021,08,25,05,04,10.90
2021,08,25,05,05,10.80
2021,08,25,05,06,10.80
2021,08,25,05,07,10.80
2021,08,25,05,08,10.80
2021,08,25,05,09,10.90
2021,08,25,05,10,10.90
2021,08,25,05,11,10.80
2021,08,25,05,12,10.80
2021,08,25,05,13,10.80
2021,08,25,05,14,10.80
2021,08,25,05,15,10.80
2021,08,25,05,16,10.80
2021,08,25,05,17,10.80
2021,08,25,05,18,10.80
2021,08,25,05,19,10.80
2021,08,25,05,20,10.80
2021,08,25,05,21,10.80
2021,08,25,05,22,10.80
2021,08,25,05,23,10.80
2021,08,25,05,24,10.80
2021,08,25,05,25,10.80
2021,08,25,05,26,10.80
2021,08,25,05,27,10.80
2021,08,25,05,28,10.80
2021,08,25,05,29,10.80
2021,08,25,05,30,10.80
2021,08,25,05,31,10.80
2021,08,25,05,32,10.80
2021,08,25,05,33,10.80
2021,08,25,05,34,10.80
2021,08,25,05,35,10.80
2021,08,25,05,36,10.80
2021,08,25,05,37,10.80
2021,08,25,05,38,10.80
2021,08,25,05,39,10.80
2021,08,25,05,40,10.80
2021,08,25,05,41,10.80
2021,08,25,05,42,10.80
2021,08,25,05,43,10.80
2021,08,25,05,44,10.80
2021,08,25,05,45,10.80
2021,08,25,05,46,10.80
2021,08,25,05,47,10.80
2021,08,25,05,48,10.80
2021,08,25,05,49,10.80
2021,08,25,05,50,10.70
2021,08,25,05,51,10.70
2021,08,25,05,52,10.70
2021,08,25,05,53,10.70
2021,08,25,05,54,10.70
2021,08,25,05,55,10.70
2021,08,25,05,56,10.60
2021,08,25,05,57,10.60
2021,08,25,05,58,10.60
2021,08,25,05,59,10.60
2021,08,25,06,00,10.60
2021,08,25,06,01,10.50
2021,08,25,06,02,10.50
2021,08,25,06,03,10.50
2021,08,25,06,04,10.50
2021,08,25,06,05,10.50
2021,08,25,06,06,10.50
2021,08,25,06,07,10.50
2021,08,25,06,08,10.50
2021,08,25,06,09,10.50
2021,08,25,06,10,10.50
2021,08,25,06,11,10.60
2021,08,25,06,12,10.60
2021,08,25,06,13,10.60
2021,08,25,06,14,10.60
2021,08,25,06,15,10.60
2021,08,25,06,16,10.50
2021,08,25,06,17,10.50
2021,08,25,06,18,10.50
2021,08,25,06,19,10.50
2021,08,25,06,20,10.50
2021,08,25,06,21,10.50
2021,08,25,06,22,10.50
2021,08,25,06,23,10.60
2021,08,25,06,24,10.60
2021,08,25,06,25,10.60
2021,08,25,06,26,10.60
2021,08,25,06,27,10.60
2021,08,25,06,28,10.60
2021,08,25,06,29,10.60
2021,08,25,06,30,10.60
2021,08,25,06,31,10.60
2021,08,25,06,32,10.60
2021,08,25,06,33,10.70
2021,08,25,06,34,10.70
2021,08,25,06,35,10.70
2021,08,25,06,36,10.70
2021,08,25,06,37,10.70
2021,08,25,06,38,10.60
2021,08,25,06,39,10.60
2021,08,25,06,40,10.60
2021,08,25,06,41,10.60
2021,08,25,06,42,10.60
2021,08,25,06,43,10.70
2021,08,25,06,44,10.60
2021,08,25,06,45,10.60
2021,08,25,06,46,10.60
2021,08,25,06,47,10.60
2021,08,25,06,48,10.60
2021,08,25,06,49,10.60
2021,08,25,06,50,10.60
2021,08,25,06,51,10.60
2021,08,25,06,52,10.50
2021,08,25,06,53,10.50
2021,08,25,06,54,10.50
2021,08,25,06,55,10.50
2021,08,25,06,56,10.40
2021,08,25,06,57,10.40
2021,08,25,06,58,10.40
2021,08,25,06,59,10.40
2021,08,25,07,00,10.40
2021,08,25,07,01,10.50
2021,08,25,07,02,10.50
2021,08,25,07,03,10.40
2021,08,25,07,04,10.50
2021,08,25,07,05,10.50
2021,08,25,07,06,10.50
2021,08,25,07,07,10.50
2021,08,25,07,08,10.50
2021,08,25,07,09,10.50
2021,08,25,07,10,10.50
2021,08,25,07,11,10.50
2021,08,25,07,12,10.50
2021,08,25,07,13,10.50
2021,08,25,07,14,10.50
2021,08,25,07,15,10.50
2021,08,25,07,16,10.50
2021,08,25,07,17,10.60
2021,08,25,07,18,10.60
2021,08,25,07,19,10.60
2021,08,25,07,20,10.60
2021,08,25,07,21,10.70
2021,08,25,07,22,10.70
2021,08,25,07,23,10.70
2021,08,25,07,24,10.70
2021,08,25,07,25,10.70
2021,08,25,07,26,10.80
2021,08,25,07,27,10.80
2021,08,25,07,28,10.80
2021,08,25,07,29,10.80
2021,08,25,07,30,10.80
2021,08,25,07,31,10.90
2021,08,25,07,32,10.90
2021,08,25,07,33,10.90
2021,08,25,07,34,11.00
2021,08,25,07,35,11.00
2021,08,25,07,36,11.10
2021,08,25,07,37,11.10
2021,08,25,07,38,11.20
2021,08,25,07,39,11.20
2021,08,25,07,40,11.20
2021,08,25,07,41,11.20
2021,08,25,07,42,11.20
2021,08,25,07,43,11.20
2021,08,25,07,44,11.20
2021,08,25,07,45,11.20
2021,08,25,07,46,11.30
2021,08,25,07,47,11.30
2021,08,25,07,48,11.30
2021,08,25,07,49,11.40
2021,08,25,07,50,11.50
2021,08,25,07,51,11.50
2021,08,25,07,52,11.60
2021,08,25,07,53,11.60
2021,08,25,07,54,11.60
2021,08,25,07,55,11.70
2021,08,25,07,56,11.70
2021,08,25,07,57,11.70
2021,08,25,07,58,11.70
2021,08,25,07,59,11.80
2021,08,25,08,00,11.80
2021,08,25,08,01,11.80
2021,08,25,08,02,11.80
2021,08,25,08,03,11.90
2021,08,25,08,04,11.90
2021,08,25,08,05,11.90
2021,08,25,08,06,12.00
2021,08,25,08,07,12.00
2021,08,25,08,08,12.10
2021,08,25,08,09,12.10
2021,08,25,08,10,12.10
2021,08,25,08,11,12.20
2021,08,25,08,12,12.20
2021,08,25,08,13,12.20
2021,08,25,08,14,12.30
2021,08,25,08,15,12.30
2021,08,25,08,16,12.30
2021,08,25,08,17,12.40
2021,08,25,08,18,12.40
2021,08,25,08,19,12.50
2021,08,25,08,20,12.50
2021,08,25,08,21,12.60
2021,08,25,08,22,12.60
2021,08,25,08,23,12.70
2021,08,25,08,24,12.80
2021,08,25,08,25,12.80
2021,08,25,08,26,12.90
2021,08,25,08,27,13.00
2021,08,25,08,28,13.00
2021,08,25,08,29,13.10
2021,08,25,08,30,13.10
2021,08,25,08,31,13.20
2021,08,25,08,32,13.30
2021,08,25,08,33,13.30
2021,08,25,08,34,13.40
2021,08,25,08,35,13.40
2021,08,25,08,36,13.60
2021,08,25,08,37,13.60
2021,08,25,08,38,13.70
2021,08,25,08,39,13.80
2021,08,25,08,40,13.90
2021,08,25,08,41,13.90
2021,08,25,08,42,14.10
2021,08,25,08,43,14.20
2021,08,25,08,44,14.40
2021,08,25,08,45,14.50
2021,08,25,08,46,14.70
2021,08,25,08,47,14.90
2021,08,25,08,48,15.10
2021,08,25,08,49,15.30
2021,08,25,08,50,15.50
2021,08,25,08,51,15.70
2021,08,25,08,52,15.90
2021,08,25,08,53,16.10
2021,08,25,08,54,16.20
2021,08,25,08,55,16.40
2021,08,25,08,56,16.50
2021,08,25,08,57,16.60
2021,08,25,08,58,16.70
2021,08,25,08,59,16.80
2021,08,25,09,00,17.00
2021,08,25,09,01,17.10
2021,08,25,09,02,17.20
2021,08,25,09,03,17.30
2021,08,25,09,04,17.30
2021,08,25,09,05,17.40
2021,08,25,09,06,17.40
2021,08,25,09,07,17.50
2021,08,25,09,08,17.60
2021,08,25,09,09,17.60
2021,08,25,09,10,17.60
2021,08,25,09,11,17.70
2021,08,25,09,12,17.70
2021,08,25,09,13,17.70
2021,08,25,09,14,17.70
2021,08,25,09,15,17.80
2021,08,25,09,16,17.80
2021,08,25,09,17,17.90
2021,08,25,09,18,17.90
2021,08,25,09,19,17.90
2021,08,25,09,20,17.90
2021,08,25,09,21,18.00
2021,08,25,09,22,18.10
2021,08,25,09,23,18.10
2021,08,25,09,24,18.10
2021,08,25,09,25,18.10
2021,08,25,09,26,18.10
2021,08,25,09,27,18.10
2021,08,25,09,28,18.20
2021,08,25,09,29,18.20
2021,08,25,09,30,18.20
2021,08,25,09,31,18.30
2021,08,25,09,32,18.30
2021,08,25,09,33,18.40
2021,08,25,09,34,18.40
2021,08,25,09,35,18.40
2021,08,25,09,36,18.40
2021,08,25,09,37,18.40
2021,08,25,09,38,18.40
2021,08,25,09,39,18.50
2021,08,25,09,40,18.60
2021,08,25,09,41,18.70
2021,08,25,09,42,18.70
2021,08,25,09,43,18.80
2021,08,25,09,44,18.80
2021,08,25,09,45,18.80
2021,08,25,09,46,18.80
2021,08,25,09,47,18.80
2021,08,25,09,48,18.80
2021,08,25,09,49,18.90
2021,08,25,09,50,18.90
2021,08,25,09,51,18.90
2021,08,25,09,52,18.90
2021,08,25,09,53,18.90
2021,08,25,09,54,18.90
2021,08,25,09,55,18.90
2021,08,25,09,56,19.00
2021,08,25,09,57,19.00
2021,08,25,09,58,19.00
2021,08,25,09,59,19.00
2021,08,25,10,00,19.00
2021,08,25,10,01,18.90
2021,08,25,10,02,18.90
2021,08,25,10,03,18.80
2021,08,25,10,04,18.70
2021,08,25,10,05,18.70
2021,08,25,10,06,18.70
2021,08,25,10,07,18.60
2021,08,25,10,08,18.60
2021,08,25,10,09,18.60
2021,08,25,10,10,18.60
2021,08,25,10,11,18.50
2021,08,25,10,12,18.50
2021,08,25,10,13,18.40
2021,08,25,10,14,18.40
2021,08,25,10,15,18.50
2021,08,25,10,16,18.60
2021,08,25,10,17,18.60
2021,08,25,10,18,18.70
2021,08,25,10,19,18.70
2021,08,25,10,20,18.80
2021,08,25,10,21,18.90
2021,08,25,10,22,19.00
2021,08,25,10,23,19.10
2021,08,25,10,24,19.10
2021,08,25,10,25,19.10
2021,08,25,10,26,19.00
2021,08,25,10,27,19.00
2021,08,25,10,28,19.00
2021,08,25,10,29,19.00
2021,08,25,10,30,19.10
2021,08,25,10,31,19.10
2021,08,25,10,32,19.00
2021,08,25,10,33,18.90
2021,08,25,10,34,18.80
2021,08,25,10,35,18.80
2021,08,25,10,36,18.90
2021,08,25,10,37,18.90
2021,08,25,10,38,18.80
2021,08,25,10,39,18.80
2021,08,25,10,40,18.80
2021,08,25,10,41,18.70
2021,08,25,10,42,18.70
2021,08,25,10,43,18.70
2021,08,25,10,44,18.70
2021,08,25,10,45,18.80
2021,08,25,10,46,18.80
2021,08,25,10,47,18.70
2021,08,25,10,48,18.70
2021,08,25,10,49,18.70
2021,08,25,10,50,18.60
2021,08,25,10,51,18.70
2021,08,25,10,52,18.70
2021,08,25,10,53,18.80
2021,08,25,10,54,18.80
2021,08,25,10,55,18.70
2021,08,25,10,56,18.70
2021,08,25,10,57,18.70
2021,08,25,10,58,18.70
2021,08,25,10,59,18.80
2021,08,25,11,00,18.90
2021,08,25,11,01,18.90
2021,08,25,11,02,18.90
2021,08,25,11,03,18.90
2021,08,25,11,04,18.90
2021,08,25,11,05,18.80
2021,08,25,11,06,18.80
2021,08,25,11,07,18.80
2021,08,25,11,08,18.80
2021,08,25,11,09,18.80
2021,08,25,11,10,18.90
2021,08,25,11,11,18.90
2021,08,25,11,12,19.00
2021,08,25,11,13,19.00
2021,08,25,11,14,19.10
2021,08,25,11,15,19.00
2021,08,25,11,16,18.90
2021,08,25,11,17,18.70
2021,08,25,11,18,18.60
2021,08,25,11,19,18.60
2021,08,25,11,20,18.60
2021,08,25,11,21,18.50
2021,08,25,11,22,18.60
2021,08,25,11,23,18.50
2021,08,25,11,24,18.60
2021,08,25,11,25,18.60
2021,08,25,11,26,18.60
2021,08,25,11,27,18.60
2021,08,25,11,28,18.70
2021,08,25,11,29,18.70
2021,08,25,11,30,18.80
2021,08,25,11,31,18.80
2021,08,25,11,32,18.80
2021,08,25,11,33,18.80
2021,08,25,11,34,18.80
2021,08,25,11,35,18.70
2021,08,25,11,36,18.70
2021,08,25,11,37,18.60
2021,08,25,11,38,18.50
2021,08,25,11,39,18.40
2021,08,25,11,40,18.40
2021,08,25,11,41,18.40
2021,08,25,11,42,18.40
2021,08,25,11,43,18.50
2021,08,25,11,44,18.50
2021,08,25,11,45,18.50
2021,08,25,11,46,18.50
2021,08,25,11,47,18.60
2021,08,25,11,48,18.70
2021,08,25,11,49,18.80
2021,08,25,11,50,18.80
2021,08,25,11,51,18.80
2021,08,25,11,52,18.80
2021,08,25,11,53,18.90
2021,08,25,11,54,18.90
2021,08,25,11,55,19.00
2021,08,25,11,56,19.10
2021,08,25,11,57,19.00
2021,08,25,11,58,19.00
2021,08,25,11,59,19.00
2021,08,25,12,00,19.00
2021,08,25,12,01,18.90
2021,08,25,12,02,18.80
2021,08,25,12,03,18.70
2021,08,25,12,04,18.70
2021,08,25,12,05,18.60
2021,08,25,12,06,18.60
2021,08,25,12,07,18.50
2021,08,25,12,08,18.50
2021,08,25,12,09,18.40
2021,08,25,12,10,18.40
2021,08,25,12,11,18.30
2021,08,25,12,12,18.30
2021,08,25,12,13,18.20
2021,08,25,12,14,18.20
2021,08,25,12,15,18.20
2021,08,25,12,16,18.20
2021,08,25,12,17,18.30
2021,08,25,12,18,18.30
2021,08,25,12,19,18.30
2021,08,25,12,20,18.40
2021,08,25,12,21,18.40
2021,08,25,12,22,18.50
2021,08,25,12,23,18.50
2021,08,25,12,24,18.50
2021,08,25,12,25,18.60
2021,08,25,12,26,18.70
2021,08,25,12,27,18.80
2021,08,25,12,28,18.90
2021,08,25,12,29,19.00
2021,08,25,12,30,19.00
2021,08,25,12,31,19.10
2021,08,25,12,32,19.10
2021,08,25,12,33,19.10
2021,08,25,12,34,19.10
2021,08,25,12,35,19.20
2021,08,25,12,36,19.30
2021,08,25,12,37,19.30
2021,08,25,12,38,19.40
2021,08,25,12,39,19.40
2021,08,25,12,40,19.40
2021,08,25,12,41,19.40
2021,08,25,12,42,19.40
2021,08,25,12,43,19.40
2021,08,25,12,44,19.30
2021,08,25,12,45,19.10
2021,08,25,12,46,19.00
2021,08,25,12,47,18.90
2021,08,25,12,48,18.90
2021,08,25,12,49,19.00
2021,08,25,12,50,19.00
2021,08,25,12,51,19.00
2021,08,25,12,52,19.00
2021,08,25,12,53,19.00
2021,08,25,12,54,18.90
2021,08,25,12,55,18.90
2021,08,25,12,56,19.00
2021,08,25,12,57,19.00
2021,08,25,12,58,18.90
2021,08,25,12,59,18.90
2021,08,25,13,00,19.00
2021,08,25,13,01,19.00
2021,08,25,13,02,19.10
2021,08,25,13,03,19.10
2021,08,25,13,04,19.00
2021,08,25,13,05,19.00
2021,08,25,13,06,19.10
2021,08,25,13,07,19.10
2021,08,25,13,08,19.10
2021,08,25,13,09,19.20
2021,08,25,13,10,19.20
2021,08,25,13,11,19.20
2021,08,25,13,12,19.20
2021,08,25,13,13,19.30
2021,08,25,13,14,19.40
2021,08,25,13,15,19.60
2021,08,25,13,16,19.70
2021,08,25,13,17,19.90
2021,08,25,13,18,20.00
2021,08,25,13,19,20.10
2021,08,25,13,20,20.20
2021,08,25,13,21,20.30
2021,08,25,13,22,20.40
2021,08,25,13,23,20.40
2021,08,25,13,24,20.40
2021,08,25,13,25,20.50
2021,08,25,13,26,20.60
2021,08,25,13,27,20.50
2021,08,25,13,28,20.40
2021,08,25,13,29,20.30
2021,08,25,13,30,20.20
2021,08,25,13,31,20.20
2021,08,25,13,32,20.20
2021,08,25,13,33,20.20
2021,08,25,13,34,20.30
2021,08,25,13,35,20.30
2021,08,25,13,36,20.20
2021,08,25,13,37,20.30
2021,08,25,13,38,20.30
2021,08,25,13,39,20.30
2021,08,25,13,40,20.40
2021,08,25,13,41,20.40
2021,08,25,13,42,20.50
2021,08,25,13,43,20.60
2021,08,25,13,44,20.70
2021,08,25,13,45,20.70
2021,08,25,13,46,20.70
2021,08,25,13,47,20.60
2021,08,25,13,48,20.40
2021,08,25,13,49,20.30
2021,08,25,13,50,20.20
2021,08,25,13,51,20.20
2021,08,25,13,52,20.20
2021,08,25,13,53,20.20
2021,08,25,13,54,20.20
2021,08,25,13,55,20.20
2021,08,25,13,56,20.20
2021,08,25,13,57,20.10
2021,08,25,13,58,20.10
2021,08,25,13,59,20.00
2021,08,25,14,00,20.00
2021,08,25,14,01,20.00
2021,08,25,14,02,20.00
2021,08,25,14,03,19.90
2021,08,25,14,04,19.90
2021,08,25,14,05,19.90
2021,08,25,14,06,19.90
2021,08,25,14,07,20.00
2021,08,25,14,08,20.10
2021,08,25,14,09,20.20
2021,08,25,14,10,20.20
2021,08,25,14,11,20.20
2021,08,25,14,12,20.20
2021,08,25,14,13,20.30
2021,08,25,14,14,20.30
2021,08,25,14,15,20.40
2021,08,25,14,16,20.40
2021,08,25,14,17,20.50
2021,08,25,14,18,20.50
2021,08,25,14,19,20.40
2021,08,25,14,20,20.40
2021,08,25,14,21,20.40
2021,08,25,14,22,20.40
2021,08,25,14,23,20.40
2021,08,25,14,24,20.50
2021,08,25,14,25,20.60
2021,08,25,14,26,20.50
2021,08,25,14,27,20.50
2021,08,25,14,28,20.50
2021,08,25,14,29,20.50
2021,08,25,14,30,20.50
2021,08,25,14,31,20.50
2021,08,25,14,32,20.40
2021,08,25,14,33,20.40
2021,08,25,14,34,20.30
2021,08,25,14,35,20.30
2021,08,25,14,36,20.30
2021,08,25,14,37,20.30
2021,08,25,14,38,20.30
2021,08,25,14,39,20.20
2021,08,25,14,40,20.20
2021,08,25,14,41,20.10
2021,08,25,14,42,20.10
2021,08,25,14,43,20.10
2021,08,25,14,44,20.10
2021,08,25,14,45,20.10
2021,08,25,14,46,20.10
2021,08,25,14,47,20.20
2021,08,25,14,48,20.20
2021,08,25,14,49,20.20
2021,08,25,14,50,20.30
2021,08,25,14,51,20.20
2021,08,25,14,52,20.20
2021,08,25,14,53,20.20
2021,08,25,14,54,20.20
2021,08,25,14,55,20.10
2021,08,25,14,56,20.10
2021,08,25,14,57,20.10
2021,08,25,14,58,20.10
2021,08,25,14,59,20.00
2021,08,25,15,00,20.00
2021,08,25,15,01,19.90
2021,08,25,15,02,19.90
2021,08,25,15,03,19.90
2021,08,25,15,04,19.80
2021,08,25,15,05,19.70
2021,08,25,15,06,19.80
2021,08,25,15,07,19.80
2021,08,25,15,08,19.80
2021,08,25,15,09,19.80
2021,08,25,15,10,19.90
2021,08,25,15,11,20.00
2021,08,25,15,12,20.00
2021,08,25,15,13,19.90
2021,08,25,15,14,19.90
2021,08,25,15,15,19.90
2021,08,25,15,16,19.90
2021,08,25,15,17,19.80
2021,08,25,15,18,19.70
2021,08,25,15,19,19.70
2021,08,25,15,20,19.70
2021,08,25,15,21,19.80
2021,08,25,15,22,19.90
2021,08,25,15,23,19.90
2021,08,25,15,24,19.90
2021,08,25,15,25,20.00
2021,08,25,15,26,20.00
2021,08,25,15,27,20.00
2021,08,25,15,28,20.00
2021,08,25,15,29,20.10
2021,08,25,15,30,20.10
2021,08,25,15,31,20.00
2021,08,25,15,32,20.00
2021,08,25,15,33,19.90
2021,08,25,15,34,20.00
2021,08,25,15,35,20.00
2021,08,25,15,36,20.10
2021,08,25,15,37,20.10
2021,08,25,15,38,20.10
2021,08,25,15,39,20.10
2021,08,25,15,40,20.00
2021,08,25,15,41,20.00
2021,08,25,15,42,20.00
2021,08,25,15,43,20.00
2021,08,25,15,44,20.00
2021,08,25,15,45,20.10
2021,08,25,15,46,20.10
2021,08,25,15,47,20.10
2021,08,25,15,48,20.10
2021,08,25,15,49,20.20
2021,08,25,15,50,20.20
2021,08,25,15,51,20.20
2021,08,25,15,52,20.10
2021,08,25,15,53,20.10
2021,08,25,15,54,20.10
2021,08,25,15,55,20.10
2021,08,25,15,56,20.10
2021,08,25,15,57,20.20
2021,08,25,15,58,20.20
2021,08,25,15,59,20.20
2021,08,25,16,00,20.20
2021,08,25,16,01,20.30
2021,08,25,16,02,20.30
2021,08,25,16,03,20.40
2021,08,25,16,04,20.40
2021,08,25,16,05,20.50
2021,08,25,16,06,20.40
2021,08,25,16,07,20.40
2021,08,25,16,08,20.40
2021,08,25,16,09,20.30
2021,08,25,16,10,20.20
2021,08,25,16,11,20.20
2021,08,25,16,12,20.10
2021,08,25,16,13,20.00
2021,08,25,16,14,20.00
2021,08,25,16,15,20.00
2021,08,25,16,16,20.00
2021,08,25,16,17,20.00
2021,08,25,16,18,19.90
2021,08,25,16,19,19.90
2021,08,25,16,20,19.90
2021,08,25,16,21,19.90
2021,08,25,16,22,19.90
2021,08,25,16,23,19.80
2021,08,25,16,24,19.80
2021,08,25,16,25,19.90
2021,08,25,16,26,19.80
2021,08,25,16,27,19.90
2021,08,25,16,28,19.80
2021,08,25,16,29,19.90
2021,08,25,16,30,19.90
2021,08,25,16,31,19.90
2021,08,25,16,32,19.90
2021,08,25,16,33,19.90
2021,08,25,16,34,19.90
2021,08,25,16,35,19.90
2021,08,25,16,36,19.80
2021,08,25,16,37,19.80
2021,08,25,16,38,19.80
2021,08,25,16,39,19.80
2021,08,25,16,40,19.80
2021,08,25,16,41,19.80
2021,08,25,16,42,19.70
2021,08,25,16,43,19.80
2021,08,25,16,44,19.80
2021,08,25,16,45,19.70
2021,08,25,16,46,19.70
2021,08,25,16,47,19.70
2021,08,25,16,48,19.60
2021,08,25,16,49,19.60
2021,08,25,16,50,19.60
2021,08,25,16,51,19.60
2021,08,25,16,52,19.60
2021,08,25,16,53,19.50
2021,08,25,16,54,19.40
2021,08,25,16,55,19.40
2021,08,25,16,56,19.40
2021,08,25,16,57,19.30
2021,08,25,16,58,19.30
2021,08,25,16,59,19.30
2021,08,25,17,00,19.30
2021,08,25,17,01,19.30
2021,08,25,17,02,19.30
2021,08,25,17,03,19.30
2021,08,25,17,04,19.30
2021,08,25,17,05,19.30
2021,08,25,17,06,19.30
2021,08,25,17,07,19.30
2021,08,25,17,08,19.30
2021,08,25,17,09,19.30
2021,08,25,17,10,19.30
2021,08,25,17,11,19.30
2021,08,25,17,12,19.30
2021,08,25,17,13,19.30
2021,08,25,17,14,19.30
2021,08,25,17,15,19.30
2021,08,25,17,16,19.20
2021,08,25,17,17,19.20
2021,08,25,17,18,19.20
2021,08,25,17,19,19.20